When you browse on this site, cookies collect data to enhance your experience and personalize the content and advertising you see.
Visit our Privacy Policy to learn more. By continuing to use the site, you agree to this use of cookies and data.
  • In Spain
  • List of Countries
  • For 7 days
  • Water Temperature
  • Satellite Maps
  • Weather Map
  • Weather Widgets
  • user-avatar
    Login

    Hourly Weather Booué

    Today, 21 May, Tuesday

    Time Temperature Precipitation Wind Pressure Humidity
    00:00 +25°C° 1.3 mm 1 mps 734 mmHg 93%
    01:00 +25°C° 0 mm 1 mps 734 mmHg 95%
    02:00 +25°C° 0.6 mm 1 mps 734 mmHg 96%
    03:00 +23°C° 0.6 mm 0 mps 734 mmHg 97%
    04:00 +22°C° 0.6 mm 0 mps 734 mmHg 97%
    05:00 +23°C° 0 mm 0 mps 734 mmHg 97%
    06:00 +23°C° 0 mm 0 mps 734 mmHg 96%
    07:00 +24°C° 0 mm 0 mps 735 mmHg 95%
    08:00 +25°C° 0 mm 0 mps 735 mmHg 87%
    09:00 +29°C° 0 mm 1 mps 735 mmHg 79%
    10:00 +31°C° 0 mm 1 mps 735 mmHg 71%
    11:00 +32°C° 0.4 mm 1 mps 734 mmHg 66%
    12:00 +33°C° 0.4 mm 1 mps 734 mmHg 61%
    13:00 +34°C° 0 mm 1 mps 733 mmHg 57%
    14:00 +33°C° 2.6 mm 1 mps 733 mmHg 67%
    15:00 +32°C° 2.6 mm 1 mps 732 mmHg 77%
    16:00 +29°C° 2.6 mm 0 mps 732 mmHg 86%
    17:00 +29°C° 4 mm 1 mps 732 mmHg 89%
    18:00 +28°C° 4 mm 1 mps 733 mmHg 92%
    19:00 +26°C° 4 mm 1 mps 733 mmHg 95%
    20:00 +26°C° 1.7 mm 1 mps 734 mmHg 95%
    21:00 +26°C° 1.7 mm 1 mps 734 mmHg 95%
    22:00 +25°C° 1.7 mm 1 mps 735 mmHg 95%
    23:00 +25°C° 0.7 mm 1 mps 735 mmHg 96%

    Tomorrow, 22 May, Wednesday

    Time Temperature Precipitation Wind Pressure Humidity
    00:00 +25°C° 0.7 mm 1 mps 735 mmHg 96%
    01:00 +25°C° 0.7 mm 1 mps 735 mmHg 97%
    02:00 +25°C° 0 mm 1 mps 735 mmHg 97%
    03:00 +24°C° 0 mm 1 mps 734 mmHg 97%
    04:00 +22°C° 0 mm 0 mps 734 mmHg 98%
    05:00 +22°C° 0 mm 0 mps 734 mmHg 97%
    06:00 +22°C° 0 mm 0 mps 734 mmHg 97%
    07:00 +22°C° 0 mm 0 mps 734 mmHg 97%
    08:00 +24°C° 0 mm 0 mps 735 mmHg 93%
    09:00 +27°C° 0 mm 1 mps 735 mmHg 89%
    10:00 +28°C° 0 mm 1 mps 735 mmHg 84%
    11:00 +30°C° 0 mm 1 mps 735 mmHg 74%
    12:00 +32°C° 0 mm 1 mps 734 mmHg 63%
    13:00 +34°C° 0 mm 1 mps 734 mmHg 52%
    14:00 +34°C° 0 mm 1 mps 733 mmHg 53%
    15:00 +34°C° 0 mm 1 mps 732 mmHg 54%
    16:00 +34°C° 0 mm 1 mps 732 mmHg 55%
    17:00 +32°C° 0.7 mm 1 mps 732 mmHg 64%
    18:00 +30°C° 0.7 mm 1 mps 732 mmHg 73%
    19:00 +28°C° 0.7 mm 1 mps 733 mmHg 82%
    20:00 +27°C° 0.4 mm 1 mps 733 mmHg 85%
    21:00 +27°C° 0.4 mm 1 mps 734 mmHg 88%
    22:00 +26°C° 0.4 mm 1 mps 734 mmHg 91%
    23:00 +26°C° 0.2 mm 1 mps 734 mmHg 91%

    Day after tomorrow, 23 May, Thursday

    Time Temperature Precipitation Wind Pressure Humidity
    00:00 +26°C° 0.2 mm 1 mps 734 mmHg 92%
    01:00 +26°C° 0.2 mm 1 mps 734 mmHg 93%
    02:00 +25°C° 0.1 mm 1 mps 734 mmHg 94%
    03:00 +25°C° 0.1 mm 1 mps 734 mmHg 95%
    04:00 +25°C° 0.1 mm 1 mps 733 mmHg 96%
    05:00 +23°C° 0.1 mm 0 mps 734 mmHg 96%
    06:00 +23°C° 0.1 mm 0 mps 734 mmHg 96%
    07:00 +23°C° 0.1 mm 0 mps 734 mmHg 96%
    08:00 +25°C° 0.2 mm 0 mps 735 mmHg 90%
    09:00 +28°C° 0.2 mm 1 mps 735 mmHg 83%
    10:00 +30°C° 0.2 mm 1 mps 736 mmHg 77%
    11:00 +31°C° 0.6 mm 1 mps 735 mmHg 72%
    12:00 +32°C° 0.6 mm 1 mps 734 mmHg 66%
    13:00 +34°C° 0.6 mm 1 mps 733 mmHg 61%
    14:00 +33°C° 1.2 mm 1 mps 733 mmHg 67%
    15:00 +32°C° 1.2 mm 1 mps 732 mmHg 73%
    16:00 +31°C° 1.2 mm 1 mps 731 mmHg 78%
    17:00 +30°C° 1.2 mm 1 mps 732 mmHg 83%
    18:00 +26°C° 1.2 mm 0 mps 733 mmHg 88%
    19:00 +25°C° 1.2 mm 0 mps 733 mmHg 93%
    20:00 +25°C° 2.6 mm 0 mps 734 mmHg 93%
    21:00 +24°C° 2.6 mm 0 mps 735 mmHg 94%
    22:00 +24°C° 2.6 mm 0 mps 735 mmHg 94%
    23:00 +24°C° 0.2 mm 0 mps 735 mmHg 95%

    24 May, Friday

    Time Temperature Precipitation Wind Pressure Humidity
    00:00 +23°C° 0.2 mm 0 mps 734 mmHg 96%
    01:00 +23°C° 0.2 mm 0 mps 734 mmHg 96%
    02:00 +23°C° 0 mm 0 mps 734 mmHg 97%
    03:00 +25°C° 0 mm 1 mps 733 mmHg 97%
    04:00 +25°C° 0 mm 1 mps 733 mmHg 97%
    05:00 +23°C° 0 mm 0 mps 733 mmHg 97%
    06:00 +23°C° 0 mm 0 mps 734 mmHg 97%
    07:00 +23°C° 0 mm 0 mps 734 mmHg 96%
    08:00 +25°C° 0 mm 0 mps 735 mmHg 88%
    09:00 +27°C° 0 mm 0 mps 735 mmHg 81%
    10:00 +29°C° 0 mm 0 mps 736 mmHg 73%
    11:00 +30°C° 0.1 mm 0 mps 735 mmHg 69%
    12:00 +32°C° 0.1 mm 1 mps 735 mmHg 66%
    13:00 +33°C° 0.1 mm 1 mps 734 mmHg 63%
    14:00 +32°C° 2 mm 1 mps 733 mmHg 70%
    15:00 +31°C° 2 mm 1 mps 732 mmHg 78%
    16:00 +30°C° 2 mm 1 mps 732 mmHg 85%
    17:00 +29°C° 0.4 mm 1 mps 732 mmHg 88%
    18:00 +28°C° 0.4 mm 1 mps 733 mmHg 90%
    19:00 +27°C° 0.4 mm 1 mps 733 mmHg 93%
    20:00 +26°C° 0.8 mm 1 mps 734 mmHg 93%
    21:00 +26°C° 0.8 mm 1 mps 734 mmHg 93%
    22:00 +26°C° 0.8 mm 1 mps 735 mmHg 93%
    23:00 +26°C° 0.3 mm 1 mps 735 mmHg 93%

    25 May, Saturday

    Time Temperature Precipitation Wind Pressure Humidity
    00:00 +25°C° 0.3 mm 1 mps 734 mmHg 94%
    01:00 +25°C° 0.3 mm 1 mps 734 mmHg 94%
    02:00 +25°C° 0 mm 1 mps 734 mmHg 95%
    03:00 +25°C° 0 mm 1 mps 733 mmHg 96%
    04:00 +23°C° 0 mm 0 mps 733 mmHg 97%
    05:00 +23°C° 0 mm 0 mps 734 mmHg 96%
    06:00 +23°C° 0 mm 0 mps 734 mmHg 96%
    07:00 +23°C° 0 mm 0 mps 735 mmHg 95%
    08:00 +25°C° 0 mm 0 mps 735 mmHg 87%
    09:00 +27°C° 0 mm 0 mps 736 mmHg 78%
    10:00 +29°C° 0 mm 0 mps 736 mmHg 69%
    11:00 +31°C° 0.2 mm 0 mps 735 mmHg 65%
    12:00 +32°C° 0.2 mm 0 mps 734 mmHg 61%
    13:00 +33°C° 0.2 mm 0 mps 734 mmHg 57%
    14:00 +32°C° 1.8 mm 0 mps 733 mmHg 65%
    15:00 +31°C° 1.8 mm 0 mps 733 mmHg 74%
    16:00 +29°C° 1.8 mm 0 mps 732 mmHg 82%
    17:00 +28°C° 1.5 mm 0 mps 733 mmHg 86%
    18:00 +28°C° 1.5 mm 1 mps 733 mmHg 90%
    19:00 +26°C° 1.5 mm 1 mps 734 mmHg 95%
    20:00 +26°C° 0.1 mm 1 mps 734 mmHg 95%
    21:00 +26°C° 0.1 mm 1 mps 734 mmHg 95%
    22:00 +26°C° 0.1 mm 1 mps 735 mmHg 96%
    23:00 +25°C° 0 mm 1 mps 734 mmHg 96%

    26 May, Sunday

    Time Temperature Precipitation Wind Pressure Humidity
    00:00 +25°C° 0 mm 1 mps 734 mmHg 97%
    01:00 +25°C° 0 mm 1 mps 733 mmHg 97%
    02:00 +23°C° 0 mm 0 mps 733 mmHg 97%
    03:00 +23°C° 0 mm 0 mps 733 mmHg 97%
    04:00 +22°C° 0 mm 0 mps 733 mmHg 98%
    05:00 +23°C° 0 mm 0 mps 733 mmHg 97%
    06:00 +23°C° 0 mm 0 mps 734 mmHg 96%
    07:00 +23°C° 0 mm 0 mps 735 mmHg 95%
    08:00 +26°C° 0 mm 0 mps 735 mmHg 85%
    09:00 +28°C° 0 mm 0 mps 735 mmHg 75%
    10:00 +30°C° 0 mm 0 mps 736 mmHg 64%
    11:00 +31°C° 0.4 mm 0 mps 735 mmHg 62%
    12:00 +32°C° 0.4 mm 0 mps 734 mmHg 60%
    13:00 +32°C° 0.4 mm 0 mps 733 mmHg 58%
    14:00 +32°C° 1.2 mm 0 mps 732 mmHg 61%
    15:00 +31°C° 1.2 mm 0 mps 732 mmHg 64%
    16:00 +31°C° 1.2 mm 0 mps 731 mmHg 67%
    17:00 +29°C° 0.9 mm 0 mps 732 mmHg 74%
    18:00 +27°C° 0.9 mm 0 mps 733 mmHg 81%
    19:00 +25°C° 0.9 mm 0 mps 733 mmHg 88%
    20:00 +25°C° 0 mm 0 mps 734 mmHg 89%
    21:00 +24°C° 0 mm 0 mps 734 mmHg 90%
    22:00 +24°C° 0 mm 0 mps 734 mmHg 92%
    23:00 +24°C° 0 mm 0 mps 734 mmHg 93%
    Show more